| time (UTC) | temp C | wind direction | speed KPH | gust KPH | rain 1hr cm | rain 24hr cm | rain mn cm | humidity % | barometer mb |
| 20260906113013 | 23 | 360 | 0.0 | 0.0 | 0.00 | 0.00 | 0.00 | 90 | 1011.2 |
| 20260906111519 | 23 | 360 | 0.0 | 0.0 | 0.00 | 0.00 | 0.00 | 89 | 1011.1 |
| 20260906110007 | 23 | 360 | 0.0 | 3.2 | 0.00 | 0.00 | 0.00 | 89 | 1011.1 |
| 20260906104530 | 23 | 322 | 0.0 | 3.2 | 0.00 | 0.00 | 0.00 | 89 | 1010.9 |
| 20260906103008 | 23 | 352 | 0.0 | 3.2 | 0.00 | 0.00 | 0.00 | 88 | 1010.8 |
| 20260906101508 | 23 | 321 | 0.0 | 1.6 | 0.00 | 0.00 | 0.00 | 88 | 1010.6 |
| 20260906100011 | 23 | 38 | 0.0 | 3.2 | 0.00 | 0.00 | 0.00 | 88 | 1010.4 |
| 20260906094509 | 23 | 71 | 0.0 | 1.6 | 0.00 | 0.00 | 0.00 | 88 | 1010.6 |
| 20260906093010 | 23 | 126 | 0.0 | 3.2 | 0.00 | 0.00 | 0.00 | 88 | 1010.2 |
| 20260906091515 | 23 | 88 | 0.0 | 0.0 | 0.00 | 0.00 | 0.00 | 87 | 1010.2 |
| 20260906090012 | 23 | 11 | 0.0 | 4.8 | 0.00 | 0.00 | 0.00 | 87 | 1010.1 |
| 20260906084512 | 23 | 5 | 0.0 | 3.2 | 0.00 | 0.00 | 0.00 | 86 | 1010.0 |
| 20260906083013 | 23 | 291 | 0.0 | 3.2 | 0.00 | 0.00 | 0.00 | 86 | 1010.2 |
| 20260906081515 | 23 | 291 | 0.0 | 0.0 | 0.00 | 0.00 | 0.00 | 86 | 1010.2 |
| 20260906080024 | 23 | 278 | 0.0 | 4.8 | 0.00 | 0.00 | 0.00 | 86 | 1010.4 |
| 20260906074516 | 23 | 326 | 1.6 | 6.4 | 0.00 | 0.00 | 0.00 | 86 | 1010.6 |
| 20260906073018 | 23 | 30 | 0.0 | 3.2 | 0.00 | 0.00 | 0.00 | 86 | 1010.4 |
| 20260906071516 | 23 | 349 | 0.0 | 3.2 | 0.00 | 0.00 | 0.00 | 85 | 1010.6 |
| 20260906070019 | 23 | 349 | 0.0 | 3.2 | 0.00 | 0.00 | 0.00 | 85 | 1010.9 |
| 20260906064518 | 24 | 306 | 0.0 | 0.0 | 0.00 | 0.00 | 0.00 | 85 | 1010.9 |
| 20260906063016 | 24 | 39 | 0.0 | 1.6 | 0.00 | 0.00 | 0.00 | 84 | 1011.1 |
| 20260906061525 | 24 | 39 | 0.0 | 1.6 | 0.00 | 0.00 | 0.00 | 83 | 1011.1 |
| 20260906060020 | 25 | 44 | 0.0 | 3.2 | 0.00 | 0.00 | 0.00 | 82 | 1011.0 |
| 20260906054519 | 25 | 32 | 0.0 | 3.2 | 0.00 | 0.00 | 0.00 | 81 | 1011.1 |
| 20260906053020 | 25 | 32 | 0.0 | 0.0 | 0.00 | 0.00 | 0.00 | 81 | 1011.0 |
| 20260906051526 | 25 | 32 | 0.0 | 0.0 | 0.00 | 0.00 | 0.00 | 81 | 1011.3 |
| 20260906050023 | 25 | 32 | 0.0 | 3.2 | 0.00 | 0.00 | 0.00 | 81 | 1011.4 |
| 20260906044519 | 25 | 44 | 0.0 | 3.2 | 0.00 | 0.00 | 0.00 | 81 | 1011.6 |
| 20260906043630 | 25 | 338 | 0.0 | 3.2 | 0.00 | 0.00 | 0.00 | 82 | 1011.7 |
| 20260906043624 | 26 | 33 | 0.0 | 3.2 | 0.00 | 0.00 | 0.00 | 81 | 1011.7 |
| 20260906040027 | 26 | 331 | 3.2 | 6.4 | 0.00 | 0.00 | 0.00 | 80 | 1011.7 |
| 20260906034503 | 26 | 38 | 0.0 | 8.0 | 0.00 | 0.00 | 0.00 | 80 | 1011.7 |
| 20260906033007 | 27 | 325 | 1.6 | 8.0 | 0.00 | 0.00 | 0.00 | 79 | 1011.6 |
| 20260906031507 | 27 | 304 | 0.0 | 3.2 | 0.00 | 0.00 | 0.00 | 79 | 1011.5 |
| 20260906030029 | 27 | 269 | 0.0 | 3.2 | 0.00 | 0.00 | 0.00 | 80 | 1011.7 |
| 20260906024516 | 27 | 176 | 0.0 | 3.2 | 0.00 | 0.00 | 0.00 | 82 | 1011.5 |
| 20260906023004 | 28 | 176 | 0.0 | 3.2 | 0.00 | 0.00 | 0.00 | 84 | 1011.4 |
| 20260906021504 | 28 | 202 | 1.6 | 9.7 | 0.00 | 0.00 | 0.00 | 84 | 1011.0 |
| 20260906020011 | 28 | 317 | 0.0 | 9.7 | 0.00 | 0.00 | 0.00 | 86 | 1011.2 |
| 20260906014531 | 28 | 165 | 0.0 | 8.0 | 0.00 | 0.00 | 0.00 | 86 | 1010.4 |
| 20260906013031 | 28 | 172 | 3.2 | 11.3 | 0.00 | 0.00 | 0.00 | 86 | 1009.0 |
| 20260906011503 | 28 | 169 | 1.6 | 3.2 | 0.00 | 0.00 | 0.00 | 84 | 1009.9 |
| 20260906010004 | 28 | 213 | 0.0 | 4.8 | 0.00 | 0.00 | 0.00 | 85 | 1010.8 |
| 20260906004513 | 28 | 261 | 1.6 | 6.4 | 0.00 | 0.00 | 0.00 | 85 | 1011.5 |
| 20260906003017 | 28 | 203 | 3.2 | 9.7 | 0.00 | 0.00 | 0.00 | 84 | 1011.3 |
| 20260906001524 | 29 | 202 | 1.6 | 12.9 | 0.00 | 0.00 | 0.00 | 83 | 1011.4 |
| 20260906000009 | 29 | 175 | 3.2 | 4.8 | 0.00 | 0.00 | 0.00 | 82 | 1011.5 |
| 20260905234509 | 30 | 175 | 6.4 | 11.3 | 0.00 | 0.00 | 0.00 | 80 | 1011.3 |
| 20260905233039 | 30 | 175 | 3.2 | 6.4 | 0.00 | 0.00 | 0.00 | 79 | 1011.4 |
| 20260905231523 | 31 | 175 | 0.0 | 11.3 | 0.00 | 0.00 | 0.00 | 77 | 1011.4 |
| 20260905230031 | 31 | 175 | 4.8 | 11.3 | 0.00 | 0.00 | 0.00 | 76 | 1011.1 |
| 20260905224545 | 31 | 161 | 6.4 | 9.7 | 0.00 | 0.00 | 0.00 | 74 | 1011.0 |
| 20260905223015 | 32 | 173 | 4.8 | 9.7 | 0.00 | 0.00 | 0.00 | 73 | 1010.9 |
| 20260905221518 | 32 | 180 | 8.0 | 17.7 | 0.00 | 0.00 | 0.00 | 72 | 1010.6 |
| 20260905220028 | 32 | 186 | 6.4 | 16.1 | 0.00 | 0.00 | 0.00 | 70 | 1010.5 |
| 20260905214530 | 33 | 207 | 4.8 | 12.9 | 0.00 | 0.00 | 0.00 | 68 | 1010.4 |
| 20260905213010 | 33 | 207 | 3.2 | 11.3 | 0.00 | 0.00 | 0.00 | 64 | 1010.4 |
| 20260905211519 | 35 | 21 | 1.6 | 3.2 | 0.00 | 0.00 | 0.00 | 54 | 1010.3 |
| 20260905210022 | 34 | 17 | 1.6 | 4.8 | 0.00 | 0.00 | 0.00 | 54 | 1010.1 |
| 20260905204536 | 34 | 52 | 4.8 | 9.7 | 0.00 | 0.00 | 0.00 | 54 | 1010.1 |
| 20260905203030 | 34 | 83 | 3.2 | 6.4 | 0.00 | 0.00 | 0.00 | 56 | 1010.0 |
| 20260905201515 | 33 | 161 | 1.6 | 6.4 | 0.00 | 0.00 | 0.00 | 58 | 1010.1 |
| 20260905200029 | 33 | 213 | 3.2 | 6.4 | 0.00 | 0.00 | 0.00 | 58 | 1010.1 |
| 20260905194530 | 33 | 309 | 1.6 | 8.0 | 0.00 | 0.00 | 0.00 | 59 | 1010.3 |
| 20260905193029 | 33 | 181 | 1.6 | 6.4 | 0.00 | 0.00 | 0.00 | 60 | 1010.4 |
| 20260905191534 | 33 | 5 | 3.2 | 12.9 | 0.00 | 0.00 | 0.00 | 60 | 1010.8 |
| 20260905190016 | 33 | 169 | 1.6 | 6.4 | 0.00 | 0.00 | 0.00 | 60 | 1011.1 |
| 20260905185136 | 33 | 271 | 0.0 | 11.3 | 0.00 | 0.00 | 0.00 | 61 | 1011.5 |
| 20260905185130 | 32 | 268 | 1.6 | 6.4 | 0.00 | 0.00 | 0.00 | 64 | 1011.7 |
| 20260905181546 | 33 | 175 | 1.6 | 4.8 | 0.00 | 0.00 | 0.00 | 65 | 1011.9 |
| 20260905180019 | 32 | 181 | 1.6 | 12.9 | 0.00 | 0.00 | 0.00 | 65 | 1012.0 |
| 20260905174519 | 32 | 175 | 4.8 | 11.3 | 0.00 | 0.00 | 0.00 | 64 | 1012.1 |
| 20260905173028 | 32 | 175 | 1.6 | 4.8 | 0.00 | 0.00 | 0.00 | 65 | 1012.3 |
| 20260905171531 | 32 | 238 | 1.6 | 6.4 | 0.00 | 0.00 | 0.00 | 66 | 1012.6 |
| 20260905170033 | 32 | 302 | 1.6 | 11.3 | 0.00 | 0.00 | 0.00 | 68 | 1012.8 |
| 20260905164535 | 32 | 300 | 3.2 | 6.4 | 0.00 | 0.00 | 0.00 | 68 | 1013.0 |
| 20260905163025 | 31 | 255 | 3.2 | 9.7 | 0.00 | 0.00 | 0.00 | 72 | 1013.4 |
| 20260905161532 | 31 | 226 | 0.0 | 9.7 | 0.00 | 0.00 | 0.00 | 68 | 1013.6 |
| 20260905160034 | 31 | 317 | 3.2 | 4.8 | 0.00 | 0.00 | 0.00 | 72 | 1013.8 |
| 20260905154554 | 30 | 304 | 3.2 | 9.7 | 0.00 | 0.00 | 0.00 | 74 | 1014.0 |
| 20260905153022 | 30 | 251 | 1.6 | 6.4 | 0.00 | 0.00 | 0.00 | 73 | 1014.2 |
| 20260905151505 | 30 | 308 | 0.0 | 9.7 | 0.00 | 0.00 | 0.00 | 77 | 1014.1 |
| 20260905150008 | 29 | 270 | 1.6 | 4.8 | 0.00 | 0.00 | 0.00 | 78 | 1014.3 |
| 20260905144510 | 29 | 288 | 1.6 | 8.0 | 0.00 | 0.00 | 0.00 | 80 | 1014.3 |
| 20260905143017 | 28 | 216 | 1.6 | 6.4 | 0.00 | 0.00 | 0.00 | 81 | 1014.3 |
| 20260905141527 | 28 | 294 | 3.2 | 9.7 | 0.00 | 0.00 | 0.00 | 83 | 1014.3 |
| 20260905140006 | 28 | 177 | 1.6 | 4.8 | 0.00 | 0.00 | 0.00 | 85 | 1014.3 |
| 20260905134509 | 28 | 177 | 1.6 | 9.7 | 0.00 | 0.00 | 0.00 | 86 | 1014.3 |
| 20260905133040 | 27 | 231 | 3.2 | 9.7 | 0.00 | 0.00 | 0.00 | 87 | 1014.4 |
| 20260905131538 | 27 | 217 | 1.6 | 4.8 | 0.00 | 0.00 | 0.00 | 88 | 1014.4 |
| 20260905130039 | 27 | 176 | 0.0 | 4.8 | 0.00 | 0.00 | 0.00 | 90 | 1014.5 |
| 20260905124507 | 26 | 176 | 0.0 | 3.2 | 0.00 | 0.00 | 0.00 | 91 | 1014.4 |
| 20260905123014 | 26 | 176 | 0.0 | 3.2 | 0.00 | 0.00 | 0.00 | 93 | 1014.3 |
| 20260905121533 | 25 | 176 | 0.0 | 4.8 | 0.00 | 0.00 | 0.00 | 93 | 1014.3 |
| 20260905120023 | 25 | 176 | 1.6 | 3.2 | 0.00 | 0.00 | 0.00 | 93 | 1014.2 |
| 20260905114538 | 25 | 176 | 0.0 | 0.0 | 0.00 | 0.00 | 0.00 | 93 | 1014.2 |